Location: Bonn
(50.7330°N, 7.1000°E)
Time: 01:07:07
(UTC+02:00)

Cosmos 1933 Rocket - Visible Passes

Search period start: 20 April 2018 00:00
Search period end: 30 April 2018 00:00
Orbit: 607 x 630 km, 82.5° (Epoch: 19 April)

Date Brightness Start Highest point End Pass type
(mag) Time Alt. Az. Time Alt. Az. Time Alt. Az.
20 Apr 4.7 22:23:14 10° NNW 22:27:24 42° W 22:31:30 10° SSW visible
21 Apr 5.6 22:40:50 10° NNW 22:44:26 25° W 22:47:59 10° SW visible
22 Apr 3.6 21:19:40 10° N 21:24:04 67° ENE 21:28:25 10° SSE visible
22 Apr 6.3 22:58:52 10° NW 23:01:23 15° W 23:03:52 10° WSW visible
23 Apr 3.8 21:36:54 10° NNW 21:41:17 71° W 21:45:37 10° S visible
24 Apr 4.9 21:54:17 10° NNW 21:58:25 40° W 22:02:29 10° SSW visible
25 Apr 5.8 22:11:54 10° NW 22:15:26 24° W 22:18:56 10° SW visible
26 Apr 6.4 22:29:58 10° NW 22:32:22 15° W 22:34:45 10° WSW visible
28 Apr 5.1 21:25:20 10° NNW 21:29:25 39° W 21:33:27 10° SSW visible
29 Apr 6.0 21:42:58 10° NW 21:46:26 23° W 21:49:52 10° SW visible
